GW4040 Weather Reports


Display with metric or nautical units.
time (UTC)temp
F
wind
direction
speed
MPH
gust
MPH
rain 1hr
in
rain 24hr
in
rain mn
in
humidity
%
barometer
mb
20260505011005 64 146 2.0 5.0 0.00 0.00 0.00 51 1008.9
20260505010510 64 133 2.0 5.0 0.00 0.00 0.00 51 1008.8
20260505010013 64 152 2.0 4.0 0.00 0.00 0.00 51 1008.8
20260505005507 64 150 2.0 4.0 0.00 0.00 0.00 51 1008.7
20260505005006 65 131 1.0 4.0 0.00 0.00 0.00 51 1008.6
20260505004520 65 147 2.0 4.0 0.00 0.00 0.00 50 1008.5
20260505004008 65 137 1.0 3.0 0.00 0.00 0.00 50 1008.5
20260505003511 65 139 2.0 5.0 0.00 0.00 0.00 50 1008.5
20260505003012 66 160 2.0 5.0 0.00 0.00 0.00 49 1008.5
20260505002505 66 154 2.0 5.0 0.00 0.00 0.00 48 1008.5
20260505002007 66 161 2.0 6.0 0.00 0.00 0.00 48 1008.5
20260505001517 66 158 3.0 7.0 0.00 0.00 0.00 47 1008.5
20260505001004 67 139 2.0 11.0 0.00 0.00 0.00 47 1008.5
20260505000504 67 221 3.0 12.0 0.00 0.00 0.00 46 1008.2
20260505000023 68 198 4.0 12.0 0.00 0.00 0.00 46 1008.2
20260504235504 68 109 5.0 13.0 0.00 0.00 0.00 46 1008.2
20260504235004 69 174 5.0 13.0 0.00 0.00 0.00 45 1008.1
20260504234513 69 139 6.0 12.0 0.00 0.00 0.00 45 1008.1
20260504234003 70 143 6.0 13.0 0.00 0.00 0.00 44 1008.0
20260504233503 70 155 6.0 13.0 0.00 0.00 0.00 43 1008.1
20260504233005 71 183 6.0 12.0 0.00 0.00 0.00 42 1008.1
20260504232502 71 149 4.0 9.0 0.00 0.00 0.00 41 1007.9
20260504232004 72 172 3.0 9.0 0.00 0.00 0.00 41 1007.9
20260504231510 72 160 4.0 11.0 0.00 0.00 0.00 40 1007.9
20260504231003 73 249 3.0 11.0 0.00 0.00 0.00 39 1008.0
20260504230504 73 205 4.0 12.0 0.00 0.00 0.00 40 1008.0
20260504230010 73 192 2.0 12.0 0.00 0.00 0.00 39 1008.1
20260504225506 73 205 5.0 10.0 0.00 0.00 0.00 39 1008.2
20260504225005 73 132 4.0 11.0 0.00 0.00 0.00 40 1008.0
20260504224503 73 188 5.0 15.0 0.00 0.00 0.00 39 1008.0
20260504224003 73 202 6.0 15.0 0.00 0.00 0.00 38 1008.1
20260504223503 74 262 3.0 12.0 0.00 0.00 0.00 40 1008.1
20260504223009 74 189 6.0 12.0 0.00 0.00 0.00 38 1008.1
20260504222503 73 210 4.0 17.0 0.00 0.00 0.00 38 1008.3
20260504222005 74 231 7.0 17.0 0.00 0.00 0.00 37 1008.3
20260504221512 74 184 7.0 15.0 0.00 0.00 0.00 38 1008.1
20260504221003 74 262 6.0 12.0 0.00 0.00 0.00 38 1008.0
20260504220505 74 195 5.0 11.0 0.00 0.00 0.00 39 1008.0
20260504220006 74 176 5.0 11.0 0.00 0.00 0.00 37 1008.1
20260504215505 74 169 5.0 11.0 0.00 0.00 0.00 37 1008.1
20260504215003 74 184 4.0 11.0 0.00 0.00 0.00 40 1008.4
20260504214518 74 189 6.0 11.0 0.00 0.00 0.00 38 1008.2
20260504214010 74 162 5.0 13.0 0.00 0.00 0.00 39 1008.1
20260504213506 74 217 5.0 13.0 0.00 0.00 0.00 39 1008.1
20260504213012 74 146 7.0 13.0 0.00 0.00 0.00 38 1008.2
20260504212503 74 285 7.0 12.0 0.00 0.00 0.00 36 1008.1
20260504212002 74 231 6.0 10.0 0.00 0.00 0.00 37 1008.1
20260504211510 74 270 4.0 15.0 0.00 0.00 0.00 37 1008.1
20260504211003 74 217 5.0 15.0 0.00 0.00 0.00 36 1008.2
20260504210503 74 195 5.0 14.0 0.00 0.00 0.00 37 1008.0
20260504210014 74 200 6.0 14.0 0.00 0.00 0.00 38 1008.1
20260504205506 74 169 5.0 13.0 0.00 0.00 0.00 40 1008.2
20260504205005 74 255 6.0 13.0 0.00 0.00 0.00 38 1008.2
20260504204505 74 210 6.0 13.0 0.00 0.00 0.00 37 1008.2
20260504204003 74 268 6.0 13.0 0.00 0.00 0.00 36 1008.3
20260504203508 74 270 5.0 11.0 0.00 0.00 0.00 39 1008.2
20260504203012 74 321 5.0 10.0 0.00 0.00 0.00 37 1008.3
20260504202505 74 176 5.0 10.0 0.00 0.00 0.00 38 1008.3
20260504202004 73 199 5.0 14.0 0.00 0.00 0.00 39 1008.5
20260504201514 73 294 6.0 14.0 0.00 0.00 0.00 36 1008.6
20260504201004 73 229 7.0 13.0 0.00 0.00 0.00 40 1008.7
20260504200503 73 212 5.0 13.0 0.00 0.00 0.00 38 1008.8
20260504200004 73 184 6.0 13.0 0.00 0.00 0.00 39 1008.8
20260504195502 73 193 3.0 13.0 0.00 0.00 0.00 41 1008.9
20260504195003 73 264 5.0 13.0 0.00 0.00 0.00 38 1009.0
20260504194516 72 183 7.0 12.0 0.00 0.00 0.00 39 1009.1
20260504194003 72 256 5.0 14.0 0.00 0.00 0.00 37 1009.2
20260504193506 72 220 7.0 14.0 0.00 0.00 0.00 38 1009.2
20260504193022 72 245 8.0 14.0 0.00 0.00 0.00 42 1009.3
20260504192506 72 160 5.0 14.0 0.00 0.00 0.00 39 1009.4
20260504192002 72 242 6.0 13.0 0.00 0.00 0.00 40 1009.6
20260504191508 72 173 6.0 13.0 0.00 0.00 0.00 37 1009.6
20260504191005 72 219 5.0 12.0 0.00 0.00 0.00 40 1009.6
20260504190507 72 213 7.0 14.0 0.00 0.00 0.00 39 1009.8
20260504190017 71 180 5.0 14.0 0.00 0.00 0.00 40 1009.8
20260504185512 71 189 7.0 16.0 0.00 0.00 0.00 38 1009.9
20260504185015 71 170 5.0 16.0 0.00 0.00 0.00 37 1010.0
20260504184520 71 271 7.0 15.0 0.00 0.00 0.00 39 1010.0
20260504184004 71 267 5.0 11.0 0.00 0.00 0.00 37 1010.1
20260504183504 71 287 5.0 13.0 0.00 0.00 0.00 40 1010.1
20260504183011 71 178 5.0 13.0 0.00 0.00 0.00 40 1010.2
20260504182503 71 224 6.0 12.0 0.00 0.00 0.00 43 1010.1
20260504182009 70 259 4.0 14.0 0.00 0.00 0.00 41 1010.3
20260504181527 70 259 3.0 15.0 0.00 0.00 0.00 39 1010.3
20260504181005 70 266 6.0 15.0 0.00 0.00 0.00 40 1010.4
20260504180511 70 252 7.0 10.0 0.00 0.00 0.00 37 1010.4
20260504180022 70 276 4.0 10.0 0.00 0.00 0.00 38 1010.4
20260504175503 70 179 5.0 10.0 0.00 0.00 0.00 39 1010.6
20260504175004 70 191 5.0 11.0 0.00 0.00 0.00 39 1010.7
20260504174516 70 189 8.0 12.0 0.00 0.00 0.00 38 1010.7
20260504174007 69 212 5.0 12.0 0.00 0.00 0.00 39 1010.7
20260504173507 70 277 5.0 12.0 0.00 0.00 0.00 45 1010.8
20260504173021 69 268 4.0 13.0 0.00 0.00 0.00 41 1010.9
20260504172507 70 172 6.0 13.0 0.00 0.00 0.00 41 1011.1
20260504172005 69 154 4.0 12.0 0.00 0.00 0.00 41 1011.1
20260504171511 69 240 4.0 12.0 0.00 0.00 0.00 40 1011.2
20260504171003 69 261 7.0 12.0 0.00 0.00 0.00 41 1011.4
20260504170505 69 252 4.0 12.0 0.00 0.00 0.00 40 1011.5
20260504151003 65 249 5.0 12.0 0.00 0.00 0.00 42 1012.5
20260504150506 65 198 4.0 11.0 0.00 0.00 0.00 43 1012.5
20260504141003 60 326 0.0 3.0 0.00 0.00 0.00 53 1013.1
20260504140503 60 230 1.0 3.0 0.00 0.00 0.00 52 1013.0
20260504130506 54 326 1.0 2.0 0.00 0.00 0.00 59 1013.3
20260504110506 37 352 0.0 0.0 0.00 0.00 0.00 89 1013.4
20260504100511 34 352 0.0 1.0 0.00 0.00 0.00 89 1013.7
20260504082003 37 326 0.0 0.0 0.00 0.00 0.00 84 1014.0
20260504081524 37 310 0.0 0.0 0.00 0.00 0.00 84 1014.1
20260504081008 37 310 0.0 0.0 0.00 0.00 0.00 83 1014.1
20260504080509 37 310 0.0 0.0 0.00 0.00 0.00 83 1014.0
20260504050510 41 240 0.0 0.0 0.00 0.00 0.00 74 1014.1
20260504050016 40 240 0.0 0.0 0.00 0.00 0.00 74 1014.2
20260504045507 40 240 0.0 0.0 0.00 0.00 0.00 74 1014.2
20260504045007 40 240 0.0 0.0 0.00 0.00 0.00 75 1014.2
20260504044502 40 240 0.0 0.0 0.00 0.00 0.00 74 1014.1
20260504044003 40 240 0.0 0.0 0.00 0.00 0.00 73 1014.1
20260504043503 41 240 0.0 0.0 0.00 0.00 0.00 73 1014.1
20260504043009 41 240 0.0 0.0 0.00 0.00 0.00 73 1014.1
20260504042503 41 240 0.0 0.0 0.00 0.00 0.00 74 1014.1
20260504042006 41 240 0.0 0.0 0.00 0.00 0.00 72 1014.1
20260504041519 42 240 0.0 0.0 0.00 0.00 0.00 72 1014.0
20260504041005 42 240 0.0 0.0 0.00 0.00 0.00 71 1013.9
20260504040504 42 240 0.0 0.0 0.00 0.00 0.00 70 1013.9
20260504040004 42 240 0.0 0.0 0.00 0.00 0.00 70 1014.0
20260504035503 43 240 0.0 0.0 0.00 0.00 0.00 70 1013.9
20260504035005 42 240 0.0 0.0 0.00 0.00 0.00 69 1013.9
20260504034520 42 240 0.0 0.0 0.00 0.00 0.00 69 1013.9
20260504034002 42 240 0.0 0.0 0.00 0.00 0.00 70 1014.1
20260504033505 42 240 0.0 1.0 0.00 0.00 0.00 72 1014.0
20260504033035 42 240 0.0 1.0 0.00 0.00 0.00 72 1014.0
20260504032509 41 240 0.0 0.0 0.00 0.00 0.00 72 1013.8
20260504032003 41 240 0.0 0.0 0.00 0.00 0.00 73 1013.9
20260504031506 41 240 0.0 0.0 0.00 0.00 0.00 71 1013.8
20260504031005 42 240 0.0 0.0 0.00 0.00 0.00 70 1013.8
20260504030507 42 240 0.0 0.0 0.00 0.00 0.00 70 1013.7
20260504030017 42 240 0.0 0.0 0.00 0.00 0.00 69 1013.7
20260504025507 43 240 0.0 1.0 0.00 0.00 0.00 68 1013.7
20260504025007 43 240 1.0 1.0 0.00 0.00 0.00 69 1013.7
20260504024540 43 279 0.0 1.0 0.00 0.00 0.00 68 1013.7
20260504024007 43 279 0.0 1.0 0.00 0.00 0.00 68 1013.6
20260504023504 43 279 0.0 1.0 0.00 0.00 0.00 68 1013.7
20260504023008 43 279 0.0 1.0 0.00 0.00 0.00 68 1013.6
20260504022503 44 279 0.0 0.0 0.00 0.00 0.00 68 1013.6
20260504022007 44 279 0.0 0.0 0.00 0.00 0.00 66 1013.6
20260504021519 43 279 0.0 0.0 0.00 0.00 0.00 67 1013.6
20260504021005 43 279 0.0 0.0 0.00 0.00 0.00 67 1013.6
20260504020509 43 279 0.0 0.0 0.00 0.00 0.00 68 1013.6
20260504020026 43 279 0.0 0.0 0.00 0.00 0.00 68 1013.6
20260504015502 43 279 0.0 0.0 0.00 0.00 0.00 68 1013.5
20260504015003 43 279 0.0 0.0 0.00 0.00 0.00 66 1013.5
20260504014512 44 279 0.0 0.0 0.00 0.00 0.00 64 1013.5
20260504014005 44 279 0.0 0.0 0.00 0.00 0.00 62 1013.4
20260504013506 45 279 0.0 0.0 0.00 0.00 0.00 62 1013.4
20260504013023 46 279 0.0 0.0 0.00 0.00 0.00 61 1013.3
20260504012507 46 279 0.0 0.0 0.00 0.00 0.00 61 1013.4
20260504012008 47 279 0.0 0.0 0.00 0.00 0.00 61 1013.3